Content
SEND FEEDBACK

Daily
Averages
Monthly
Summary
United States of America

ST. LOUIS, MISSOURI


Home > North America > United States > Missouri
Elevation: 163 meters     Latitude: 38 45N     Longitude: 090 22W

WEATHER
 
SELECT A DAY
Number of Records: 200,462;   Date Range: 1/1/95 - 11/21/14
 
SHARE

PRINT THIS DATA

[ ← Previous Day ]
WEATHER ALMANAC - 14 FEBRUARY, 2013
[ Next Day → ]
[ °F ]   °C
Weather ElementAverageHighLow
Temperature7.7 °C13.9 °C (1:54 pm)3.3 °C (9:54 pm)
Dewpoint-1.1 °C0 °C (9:54 am)-2.2 °C (2:54 pm)
Humidity55.8 %73 % (9:54 pm)33 % (2:54 pm)
Barometer1013.9 hPa1018.6 hPa (11:54 pm)1009.8 hPa (3:54 am)
Wind Speed16.3 km/h25.9 km/h (10:54 am)
Wind Gust35.2 km/h (11:54 am)
Weather ElementAverage
Visibility16.1 km
Wind DirectionWSW (259.6 °)

Weather ElementTotal
Precipitation---
Heating Degree Days9.8 (Base 18.3)
Averaged from 23 records on 14 February, 2013
WEATHER CONDITIONS BREAKOUT
WIND DIRECTION BREAKOUT
WEATHER BY HOUR - 14 FEBRUARY, 2013
[ °F ]   °C
Local TimeTemperatureDewpointHumidityBarometerVisibilityWind DirectionWind SpeedGust SpeedPrecipitationEventsConditions
1:54 AM5 °C-1.1 °C65 %1010.5 hPa16.1 kmWSW (240°)18.5 km/hClear
2:54 AM5 °C-1.1 °C65 %1010.2 hPa16.1 kmWSW (240°)18.5 km/hMostly Cloudy
3:54 AM5 °C-1.1 °C65 %1009.8 hPa16.1 kmWSW (240°)18.5 km/hPartly Cloudy
4:54 AM4.4 °C-1.1 °C68 %1010.2 hPa16.1 kmWSW (240°)18.5 km/hClear
5:54 AM4.4 °C-1.1 °C68 %1010.5 hPa16.1 kmWSW (240°)16.7 km/hClear
6:54 AM3.9 °C-1.7 °C67 %1011.2 hPa16.1 kmWSW (250°)16.7 km/hPartly Cloudy
7:54 AM5 °C-1.1 °C65 %1012.5 hPa16.1 kmWSW (250°)16.7 km/hMostly Cloudy
8:54 AM5.6 °C-1.1 °C62 %1013.2 hPa16.1 kmWest (260°)14.8 km/hMostly Cloudy
9:54 AM8.9 °C0 °C54 %1013.2 hPa16.1 kmWSW (240°)14.8 km/hPartly Cloudy
10:54 AM11.1 °C0 °C47 %1013.9 hPa16.1 kmNW (310°)25.9 km/h31.5 km/hPartly Cloudy
11:54 AM12.2 °C0 °C43 %1013.9 hPa16.1 kmWNW (300°)22.2 km/h35.2 km/hScattered Clouds
12:54 PM12.2 °C0 °C43 %1013.2 hPa16.1 kmWSW (240°)20.4 km/hMostly Cloudy
1:54 PM13.9 °C-0.6 °C37 %1012.9 hPa16.1 kmWSW (250°)22.2 km/h33.3 km/hPartly Cloudy
2:54 PM13.9 °C-2.2 °C33 %1013.5 hPa16.1 kmWest (260°)16.7 km/h31.5 km/hClear
3:54 PM11.7 °C-1.7 °C40 %1014.2 hPa16.1 kmNW (310°)18.5 km/hScattered Clouds
4:54 PM11.1 °C-1.1 °C43 %1014.9 hPa16.1 kmNW (320°)22.2 km/hScattered Clouds
5:54 PM8.3 °C-0.6 °C54 %1016.3 hPa16.1 kmNW (310°)13 km/hMostly Cloudy
6:54 PM8.3 °C-1.1 °C52 %1017.3 hPa16.1 kmNW (310°)20.4 km/hClear
7:54 PM7.2 °C-1.7 °C53 %1017.9 hPa16.1 kmWNW (300°)11.1 km/hClear
8:54 PM5 °C-1.1 °C65 %1017.9 hPa16.1 kmWSW (250°)7.4 km/hPartly Cloudy
9:54 PM3.3 °C-1.1 °C73 %1017.9 hPa16.1 kmCalmMostly Cloudy
10:54 PM5.6 °C-1.7 °C60 %1018.3 hPa16.1 kmNW (320°)13 km/hScattered Clouds
11:54 PM5 °C-1.7 °C62 %1018.6 hPa16.1 kmWNW (290°)7.4 km/hOvercast
Hourly data recorded from KSUS, located 0 kilometers away from St. Louis, Missouri







STORIES FROM OUR PARTNERS